sat.trackr.live / text

‹ back to catalog

STARLINK-36988

NORAD 67998 · 2026-039N

PAYLOAD ACTIVE UNKNOWN

§ Identity

Operator
Country
US
Launch date
2026-02-27
Launch site
AFETR
Launch vehicle
Mass (kg)
RCS (m²)

Purposes: comms

External: N2YO · Heavens-Above · Gunter

§ Orbital elements

Epoch: 2026-05-24T20:15:24.454656Z

Period
94.26 min
Inclination
42.9982°
Eccentricity
0.0001531
Mean motion
15.27620708 rev/d
Perigee alt
481.9 km
Apogee alt
484.0 km
Semi-major
6,861.1 km
B*
1.1184e-3
RAAN
338.5594°
Arg perigee
271.6236°
Mean anomaly
88.4440°
Rev number
1,335

§ Raw data

STARLINK-369881 67998U 26039N   26144.84403304  .00030681  00000+0  11184-2 0  99962 67998  42.9982 338.5594 0001531 271.6236  88.4440 15.27620708 13357

JSON: /api/v1/satellites/67998 · /tle

For live sub-satellite position, see the globe view (requires WebGL).

§ Visibility from observer

Set your observer location to see the next 7 days of passes ≥ 10°. The values pass through the URL so the page stays shareable.

No JS? Fill the form by hand. The geolocation button needs JavaScript.